TimeEST,TemperatureF,Dew PointF,Humidity,Sea Level PressureIn,VisibilityMPH,Wind Direction,Wind SpeedMPH,Gust SpeedMPH,PrecipitationIn,Events,Conditions,WindDirDegrees,DateUTC
12:56 AM,-4.0,-14.1,62,30.25,10.0,WSW,8.1,-,N/A,,Clear,240,2014-01-29 05:56:00
1:56 AM,-5.1,-15.0,62,30.24,10.0,SW,8.1,-,N/A,,Clear,230,2014-01-29 06:56:00
2:56 AM,-5.1,-15.0,62,30.22,10.0,WSW,10.4,-,N/A,,Clear,250,2014-01-29 07:56:00
3:56 AM,-5.1,-15.0,62,30.21,10.0,West,9.2,-,N/A,,Clear,270,2014-01-29 08:56:00
4:56 AM,-7.1,-16.1,65,30.20,10.0,WSW,9.2,-,N/A,,Clear,240,2014-01-29 09:56:00
5:56 AM,-7.1,-15.0,68,30.22,10.0,WSW,6.9,-,N/A,,Clear,240,2014-01-29 10:56:00
6:56 AM,-7.1,-15.0,68,30.21,10.0,SW,11.5,-,N/A,,Clear,220,2014-01-29 11:56:00
7:56 AM,-6.0,-14.1,68,30.22,10.0,SW,9.2,-,N/A,,Clear,220,2014-01-29 12:56:00
8:56 AM,-2.9,-11.9,65,30.22,10.0,SW,13.8,-,N/A,,Clear,230,2014-01-29 13:56:00
9:56 AM,1.0,-9.0,63,30.23,10.0,WSW,11.5,21.9,N/A,,Clear,250,2014-01-29 14:56:00
10:56 AM,3.0,-7.1,63,30.23,10.0,WSW,16.1,27.6,N/A,,Clear,250,2014-01-29 15:56:00
11:56 AM,7.0,-7.1,53,30.20,10.0,WSW,20.7,28.8,N/A,,Clear,250,2014-01-29 16:56:00
12:56 PM,10.0,-5.1,51,30.18,10.0,West,21.9,29.9,N/A,,Clear,260,2014-01-29 17:56:00
1:56 PM,12.0,-5.1,46,30.16,10.0,WSW,19.6,26.5,N/A,,Clear,250,2014-01-29 18:56:00
2:56 PM,12.0,-5.1,46,30.17,10.0,West,21.9,29.9,N/A,,Clear,260,2014-01-29 19:56:00
3:56 PM,12.9,-5.1,45,30.19,10.0,WSW,20.7,29.9,N/A,,Clear,250,2014-01-29 20:56:00
4:56 PM,12.0,-5.1,46,30.20,10.0,WSW,19.6,28.8,N/A,,Clear,250,2014-01-29 21:56:00
5:56 PM,10.0,-6.0,48,30.23,10.0,WSW,10.4,-,N/A,,Clear,240,2014-01-29 22:56:00
6:56 PM,10.0,-6.0,48,30.25,10.0,SW,11.5,-,N/A,,Clear,230,2014-01-29 23:56:00
7:56 PM,8.1,-6.0,53,30.27,10.0,SW,10.4,-,N/A,,Clear,230,2014-01-30 00:56:00
8:56 PM,9.0,-5.1,53,30.28,10.0,WSW,15.0,-,N/A,,Clear,250,2014-01-30 01:56:00
9:56 PM,8.1,-5.1,55,30.29,10.0,WSW,13.8,-,N/A,,Clear,240,2014-01-30 02:56:00
10:56 PM,8.1,-4.0,58,30.31,10.0,WSW,15.0,-,N/A,,Clear,240,2014-01-30 03:56:00
11:56 PM,8.1,-4.0,58,30.32,10.0,SW,8.1,-,N/A,,Clear,220,2014-01-30 04:56:00